Home   Weather   Wilmington   Past weeks

Flag for USA Past Weather in Wilmington, Delaware, USA — Yesterday and Last 2 Weeks

Now
75 °F

Strong thunderstorms. Fog.


Feels Like: 73 °F
Forecast: 74 / 87 °F
Wind: 6 mph from Northwest

Location: New Castle County Airport

Current Time: Aug 18, 2017 at 7:43:50 pm

Latest Report: Aug 18, 2017 at 7:02 pm


Visibility: 3 mi

Pressure: 29.80 "Hg

Humidity: 96%

Dew Point: 74 °F

Location of WilmingtonLocation

Past Weather in Wilmington — Graph

°F

Wilmington Temperature Yesterday

Maximum temperature yesterday: 86 °F (at 2:51 pm)
Minimum temperature yesterday: 67 °F (at 2:51 am)
Average temperature yesterday: 76 °F

High & Low Weather Summary for the Past Weeks

 TemperatureHumidityPressure
High89 °F (Aug 18, 3:51 pm)100% (Aug 5, 6:51 am)30.26 "Hg (Aug 5, 6:51 am)
Low60 °F (Aug 6, 4:51 am)40% (Aug 9, 12:51 pm)29.75 "Hg (Aug 18, 3:51 pm)
Average74 °F81%30.00 "Hg
* Reported Aug 3 6:27 pm — Aug 18 6:04 pm, Wilmington. Weather by CustomWeather, © 2017

Note: Actual official high and low records may vary slightly from our data, if they occured in-between our weather recording intervals... More about our weather records

Advertising

Wilmington Weather History for the Previous 24 Hours

Scroll right to see more
 ConditionsComfort  
Time TempWeatherWind HumidityBarometerVisibility
6:04 pm
Fri, Aug 18
76 °FThunderstorms. Partly sunny.21 mph88%29.80 "Hg9 mi
4:51 pm89 °FScattered clouds.9 mph65%29.77 "Hg10 mi
3:51 pm89 °FScattered clouds.13 mph68%29.75 "Hg10 mi
2:51 pm88 °FScattered clouds.9 mph70%29.79 "Hg10 mi
2:17 pm87 °FLight rain. Scattered clouds.12 mph75%29.82 "Hg10 mi
1:51 pm85 °FPartly sunny.5 mph77%29.83 "Hg10 mi
12:51 pm82 °FOvercast.8 mph85%29.85 "Hg9 mi
11:51 am80 °FOvercast.8 mph90%29.86 "Hg8 mi
10:51 am80 °FOvercast.7 mph90%29.87 "Hg9 mi
9:51 am80 °FOvercast.8 mph87%29.88 "Hg10 mi
9:35 am79 °FOvercast.10 mph90%29.88 "Hg10 mi
8:51 am78 °FFog.7 mph93%29.87 "Hg5 mi
7:51 am76 °FLow clouds.5 mph94%29.88 "Hg10 mi
6:51 am75 °FLow clouds.7 mph94%29.88 "Hg10 mi
6:04 am75 °FLow clouds.7 mph94%29.88 "Hg10 mi
5:51 am75 °FOvercast.8 mph90%29.87 "Hg10 mi
5:19 am75 °FOvercast.8 mph90%29.87 "Hg10 mi
4:51 am75 °FOvercast.9 mph88%29.88 "Hg10 mi
4:41 am75 °FMostly cloudy.9 mph88%29.88 "Hg10 mi
3:51 am75 °FOvercast.10 mph85%29.89 "Hg10 mi
2:51 am75 °FMostly cloudy.9 mph82%29.90 "Hg10 mi
1:51 am76 °FPassing clouds.14 mph80%29.91 "Hg10 mi
12:51 am77 °FOvercast.12 mph85%29.92 "Hg10 mi
11:51 pm
Thu, Aug 17
77 °FClear.8 mph90%29.94 "Hg10 mi
10:51 pm77 °FClear.6 mph94%29.96 "Hg8 mi
9:51 pm76 °FClear.7 mph94%29.96 "Hg8 mi
8:51 pm76 °FPassing clouds.7 mph91%29.95 "Hg9 mi
7:51 pm77 °FPartly sunny.10 mph88%29.96 "Hg10 mi
Weather by CustomWeather, © 2017

See weather overviewHow to use our weather pages